Regional Weather Roundup
Issued by NWS Charleston, SC

Current Version | Previous Version | Graphics & Text | Print | Product List | Glossary On
Versions: 1 2 3 4 5 6 7 8 9 10 11 12 13 14 15 16 17 18 19 20 21 22 23 24 25 26 27 28 29 30 31 32 33 34 35 36 37 38 39 40 41 42 43 44 45 46 47 48 49 50
000
ASUS42 KCHS 202027
RWRCHS

REGIONAL WEATHER ROUNDUP
NATIONAL WEATHER SERVICE CHARLESTON SC
400 PM EDT FRI OCT 20 2017

NOTE: "FAIR" INDICATES FEW OR NO CLOUDS BELOW 12,000 FEET WITH NO
SIGNIFICANT WEATHER AND/OR OBSTRUCTIONS TO VISIBILITY.

NOT ALL STATIONS ARE QUALITY CONTROLLED. USE DATA WITH CAUTION...
ESPECIALLY DEWPOINT OBSERVATIONS.

SCZ027-030-031-034>040-042>050-202100-
...SOUTHEAST SOUTH CAROLINA...

CITY           SKY/WX    TMP DP  RH WIND       PRES   REMARKS
N CHARLESTON   SUNNY     80  53  39 NW5       30.17F
WATERFRONT PRK   N/A     75  62  64 E7        30.02F
JOHNS ISLAND   FAIR      77  61  57 E6        30.18F
PINOPOLIS        N/A     75  57  53 CALM      30.13F
MONCKS CORNER  FAIR      75  52  43 CALM      30.18F
SUMMERVILLE    FAIR      79  50  36 N3        30.19F
BEAUFORT MCAS  MOSUNNY   80  58  46 NE9       30.18F
BEAUFORT ARPT  FAIR      79  59  50 CALM      30.18S
HILTON HEAD IS SUNNY     75  63  64 NE9         N/A
WALTERBORO     CLEAR     79  46  31 CALM      30.19S
ALLENDALE        N/A     81  43  26 E5          N/A

...SOUTHERN MIDLANDS AND PEE DEE...

CITY           SKY/WX    TMP DP  RH WIND       PRES   REMARKS
GEORGETOWN     FAIR      77  55  47 SE7       30.19S
KINGSTREE      FAIR      79  45  29 CALM      30.18F
ORANGEBURG     SUNNY     80  42  25 VRB3      30.19F
BARNWELL         N/A     82  45  26 CALM      30.19S
AIKEN          FAIR      79  41  25 CALM      30.23S
MANNING        HAZE      79  45  29 MISG      30.19S VSB<1/4
COLUMBIA       SUNNY     81  46  29 SE3       30.18F
SUMTER         SUNNY     81  43  26 NE3       30.16F
FLORENCE       SUNNY     80  46  30 CALM      30.19F
MYRTLE BEACH   SUNNY     76  55  48 S8        30.19F
N MYRTLE BEACH SUNNY     75  54  47 S3        30.18F

$$

GAZ063-065-086>088-099>101-113>116-118-119-134>141-150-202100-
...SOUTHEAST GEORGIA...

CITY           SKY/WX    TMP DP  RH WIND       PRES   REMARKS
SAVANNAH ARPT  MOSUNNY   81  59  47 SE8       30.18F
HUNTER AAF     SUNNY     79  63  56 SE6       30.16S
FORT STEWART   MOSUNNY   79  60  51 N6        30.16F
STATESBORO     SUNNY     82  40  22 SE3       30.19S
SYLVANIA       CLEAR     82  50  33 SE6       30.20R
CLAXTON        FAIR      82  57  41 E5        30.18S

...CSRA...CENTRAL AND FAR SOUTHEAST GEORGIA...

CITY           SKY/WX    TMP DP  RH WIND       PRES   REMARKS
THOMSON        SUNNY     80  42  26 SE9       30.24
AUGUSTA-BUSH   SUNNY     83  40  21 SE7       30.18F
AUGUSTA-DANIEL SUNNY     82  42  24 E3        30.20F
SWAINSBORO     FAIR      81  45  28 CALM      30.19S
VIDALIA        SUNNY     82  48  30 E8        30.18F
EASTMAN        FAIR      83  -5   3 NE5       30.20S
HAZLEHURST     FAIR      82  34  17 CALM      30.16F
ALMA           SUNNY     83  58  42 E3        30.16F
WAYCROSS       SUNNY     83  56  39 E5        30.15F
JESUP          NOT AVBL
BAXLEY         FAIR      81  54  39 S3        30.17S
BRUNSWICK      PTSUNNY   77  64  65 NE14      30.19R
SAINT SIMONS   MOSUNNY   79  68  69 NE17      30.17S

$$

SCZ027-028-034-036>038-045-046-048>050-GAZ119-141-202100-
...LAKE AND SUPPLEMENTAL COASTAL OBSERVATIONS...

STATION/POSITION TIME  TEMP    WIND        PRES    WAVE   SWELL
                       AIR SEA DIR/SP/G            HT/PER HT/PER/DIR
                 (UTC) (F)     (DEG/KT/KT) (MB)    (FT/S) (FT/S/D)
WINYAH BAY       1930   74     100/  5     1022.0F
LAKE MURRAY      1950   76     210/  4/  5 1021.7F
ACE BASIN NERRS  1945   81     200/  1     1022.0S
FORT PULASKI     2000   73 74  100/ 12/ 13 1022.7
SAPELO ISLAND    NOT AVBL

$$

ANZ835-935-AMZ111-154-330-350-352-354-370-450-454-472-202100-
...C-MAN AND BUOY OBSERVATIONS...

STATION/POSITION TIME  TEMP    WIND        PRES    WAVE   SWELL
                       AIR SEA DIR/SP/G            HT/PER HT/PER/DIR
                 (UTC) (F)     (DEG/KT/KT) (MB)    (FT/S) (FT/S/D)
BUOY 41004       2010   74 79   40/  6/ 10 1021.7
BUOY 41008       1950   75 77   60/ 17/ 19 1021.3F   5/ 6   2/110/ 8
FOLLY BEACH CMAN 2000   73     100/  9/ 10 1022.7F
CAPERS NEARSHORE 2008   72 73  110/  8/ 14 1021.8F
FRIPP NEARSHORE  2008   76      90/ 10/ 12   N/A


STATION/POSITION TIME  TEMP    WIND        PRES    WAVE   SWELL
                       AIR SEA DIR/SP/G            HT/PER HT/PER/DIR
                 (UTC) (F)     (DEG/KT/KT) (MB)    (FT/S) (FT/S/D)
5E ST. MARYS GA  2000      77                N/A     5/ 5
FRYING PAN BUOY  2010   73 77  360/  4/  6 1022.2
BUOY 41025       1950   73 81  350/  4/  6 1022.0S   3/ 8   3/110/ 8
CAPE LOOKOUT NC  2000   73     220/  4/  5 1021.7F
BUOY 41002       1950   77 80   40/ 12/ 14 1020.5F   5/ 8   5/ 60/ 8
BUOY 41010       NOT AVBL
ST AUGUSTINE FL  2000   79 79   70/ 14/ 15 1020.7S


$$




USA.gov is the U.S. government's official web portal to all federal, state and local government web resources and services.